User: anonymous   Login
Location: Unspecified
(0.0000°N, 0.0000°E)
Time: 20:47:57
(UTC+00:00)
Language:

Courier 1B - Orbit

View from above orbital plane
View from above orbital plane
View from above satellite
View from above satellite

Ground track
Ground track

The orbit data is extracted from the following two-line orbital elements,

1    58U 60013A   20195.67400947 +.00000098 +00000-0 +16616-4 0  9998
2    58 028.3297 321.6103 0165061 286.3568 071.8887 13.46322741942152
Epoch (UTC): 13 July 2020 16:10:34
Eccentricity: 0.0165061
inclination: 28.3297°
perigee height: 962 km
apogee height: 1209 km
right ascension of ascending node: 321.6103°
argument of perigee: 286.3568°
revolutions per day: 13.46322741
mean anomaly at epoch: 71.8887°
orbit number at epoch: 94215

The dashed part of the orbit path shows where the satellite is in the earth's shadow,  

DLR